TimeCST,TemperatureF,Dew PointF,Humidity,Sea Level PressureIn,VisibilityMPH,Wind Direction,Wind SpeedMPH,Gust SpeedMPH,PrecipitationIn,Events,Conditions,WindDirDegrees,DateUTC
12:35 AM,48.2,44.6,87,30.06,10.0,South,9.2,-,N/A,,Overcast,180,2013-01-28 06:35:00
12:55 AM,48.2,44.6,87,30.05,10.0,South,10.4,-,N/A,,Overcast,180,2013-01-28 06:55:00
1:15 AM,48.2,44.6,87,30.06,10.0,South,9.2,-,N/A,,Overcast,180,2013-01-28 07:15:00
1:35 AM,48.2,44.6,87,30.06,10.0,South,9.2,-,N/A,,Overcast,190,2013-01-28 07:35:00
1:55 AM,48.2,44.6,87,30.06,10.0,South,8.1,-,N/A,,Overcast,190,2013-01-28 07:55:00
2:16 AM,48.2,44.6,87,30.05,10.0,South,10.4,-,N/A,,Mostly Cloudy,180,2013-01-28 08:16:00
2:35 AM,48.2,44.6,87,30.04,10.0,South,9.2,-,N/A,,Mostly Cloudy,180,2013-01-28 08:35:00
2:55 AM,50.0,46.4,87,30.03,10.0,South,13.8,19.6,N/A,,Overcast,190,2013-01-28 08:55:00
3:15 AM,51.8,46.4,82,30.03,10.0,South,13.8,18.4,N/A,,Overcast,190,2013-01-28 09:15:00
3:35 AM,51.8,46.4,82,30.03,10.0,South,15.0,19.6,N/A,,Overcast,190,2013-01-28 09:35:00
3:55 AM,51.8,46.4,82,30.03,10.0,South,12.7,18.4,N/A,,Overcast,190,2013-01-28 09:55:00
4:15 AM,51.8,46.4,82,30.02,10.0,SSW,11.5,-,N/A,,Overcast,200,2013-01-28 10:15:00
4:35 AM,51.8,46.4,82,30.02,10.0,SSW,12.7,-,N/A,,Overcast,200,2013-01-28 10:35:00
4:55 AM,51.8,48.2,88,30.03,10.0,SSW,11.5,-,N/A,,Overcast,200,2013-01-28 10:55:00
5:15 AM,53.6,48.2,82,30.02,10.0,SSW,12.7,-,N/A,,Overcast,200,2013-01-28 11:15:00
5:35 AM,53.6,48.2,82,30.02,10.0,SSW,12.7,-,N/A,,Overcast,200,2013-01-28 11:35:00
5:55 AM,53.6,48.2,82,30.03,10.0,SSW,12.7,20.7,N/A,,Overcast,200,2013-01-28 11:55:00
6:15 AM,53.6,50.0,88,30.03,10.0,SSW,13.8,-,N/A,,Overcast,210,2013-01-28 12:15:00
6:35 AM,53.6,48.2,82,30.03,10.0,SSW,13.8,-,N/A,,Overcast,200,2013-01-28 12:35:00
6:55 AM,53.6,50.0,88,30.03,10.0,SSW,13.8,-,N/A,,Overcast,200,2013-01-28 12:55:00
7:15 AM,53.6,50.0,88,30.04,10.0,SSW,15.0,19.6,N/A,,Overcast,200,2013-01-28 13:15:00
7:35 AM,53.6,50.0,88,30.04,9.0,SSW,12.7,-,N/A,,Overcast,210,2013-01-28 13:35:00
7:55 AM,53.6,50.0,88,30.04,8.0,SSW,12.7,17.3,N/A,,Overcast,200,2013-01-28 13:55:00
8:35 AM,53.6,51.8,94,30.04,9.0,SSW,19.6,-,0.01,,Overcast,200,2013-01-28 14:35:00
8:55 AM,55.4,51.8,88,30.05,7.0,SSW,16.1,-,0.01,,Overcast,200,2013-01-28 14:55:00
9:15 AM,55.4,51.8,88,30.05,7.0,SSW,11.5,-,N/A,,Overcast,200,2013-01-28 15:15:00
9:35 AM,55.4,51.8,88,30.05,7.0,SSW,12.7,-,N/A,,Overcast,200,2013-01-28 15:35:00
9:55 AM,55.4,51.8,88,30.05,7.0,SSW,12.7,-,N/A,,Overcast,200,2013-01-28 15:55:00
10:15 AM,55.4,51.8,88,30.06,8.0,SSW,11.5,-,N/A,,Overcast,210,2013-01-28 16:15:00
10:35 AM,55.4,51.8,88,30.07,7.0,SSW,10.4,-,N/A,,Overcast,210,2013-01-28 16:35:00
10:55 AM,55.4,53.6,94,30.06,8.0,SSW,9.2,-,N/A,,Overcast,200,2013-01-28 16:55:00
11:15 AM,55.4,53.6,94,30.05,9.0,SSW,9.2,-,N/A,,Overcast,200,2013-01-28 17:15:00
11:35 AM,55.4,53.6,94,30.05,8.0,SSW,10.4,-,N/A,,Overcast,200,2013-01-28 17:35:00
12:35 PM,55.4,53.6,94,30.01,5.0,SSW,10.4,-,N/A,,Overcast,200,2013-01-28 18:35:00
12:55 PM,57.2,55.4,94,30.00,2.5,SSW,12.7,-,N/A,,Overcast,210,2013-01-28 18:55:00
1:15 PM,57.2,55.4,94,30.00,2.5,SSW,12.7,-,N/A,,Overcast,200,2013-01-28 19:15:00
1:35 PM,57.2,55.4,94,30.00,2.0,SSW,11.5,-,N/A,,Overcast,200,2013-01-28 19:35:00
1:55 PM,57.2,55.4,94,30.00,2.0,SSW,9.2,-,N/A,,Overcast,200,2013-01-28 19:55:00
2:15 PM,57.2,55.4,94,30.00,2.0,South,10.4,-,N/A,,Overcast,190,2013-01-28 20:15:00
2:35 PM,57.2,55.4,94,30.00,2.0,South,9.2,-,N/A,,Overcast,190,2013-01-28 20:35:00
2:55 PM,57.2,55.4,94,30.00,3.0,South,9.2,-,N/A,,Overcast,190,2013-01-28 20:55:00
3:15 PM,57.2,55.4,94,30.00,5.0,South,9.2,-,N/A,,Overcast,190,2013-01-28 21:15:00
3:35 PM,-9999,-9999,N/A,30.00,5.0,South,6.9,-,N/A,,Unknown,180,2013-01-28 21:35:00
3:55 PM,57.2,57.2,100,30.00,5.0,South,11.5,16.1,N/A,,Overcast,180,2013-01-28 21:55:00
4:15 PM,59.0,55.4,88,29.99,5.0,South,11.5,-,N/A,,Overcast,180,2013-01-28 22:15:00
4:35 PM,59.0,55.4,88,29.99,5.0,South,12.7,17.3,N/A,,Overcast,180,2013-01-28 22:35:00
4:55 PM,59.0,55.4,88,29.99,5.0,South,12.7,19.6,N/A,,Overcast,180,2013-01-28 22:55:00
5:15 PM,59.0,55.4,88,29.99,4.0,South,12.7,-,N/A,,Overcast,180,2013-01-28 23:15:00
5:35 PM,59.0,55.4,88,29.99,5.0,South,10.4,18.4,N/A,,Overcast,180,2013-01-28 23:35:00
5:55 PM,59.0,55.4,88,29.99,6.0,South,12.7,-,N/A,,Overcast,180,2013-01-28 23:55:00
6:15 PM,59.0,57.2,94,29.99,5.0,South,11.5,-,N/A,,Overcast,180,2013-01-29 00:15:00
6:35 PM,59.0,57.2,94,30.00,6.0,South,11.5,-,N/A,,Overcast,190,2013-01-29 00:35:00
6:55 PM,60.8,57.2,88,29.99,6.0,South,10.4,18.4,N/A,,Overcast,180,2013-01-29 00:55:00
7:15 PM,60.8,57.2,88,29.99,6.0,South,11.5,-,N/A,,Overcast,180,2013-01-29 01:15:00
7:35 PM,60.8,57.2,88,30.00,7.0,South,11.5,17.3,N/A,,Overcast,180,2013-01-29 01:35:00
7:55 PM,60.8,57.2,88,30.00,7.0,South,10.4,-,N/A,,Overcast,180,2013-01-29 01:55:00
8:15 PM,60.8,57.2,88,30.00,7.0,South,11.5,-,N/A,,Overcast,190,2013-01-29 02:15:00
8:35 PM,59.0,55.4,88,29.99,8.0,South,11.5,-,N/A,,Overcast,190,2013-01-29 02:35:00
8:55 PM,59.0,55.4,88,29.99,8.0,South,10.4,-,N/A,,Mostly Cloudy,190,2013-01-29 02:55:00
9:15 PM,57.2,55.4,94,29.99,9.0,SSW,10.4,-,N/A,,Scattered Clouds,200,2013-01-29 03:15:00
9:35 PM,57.2,55.4,94,29.99,10.0,SSW,10.4,17.3,N/A,,Mostly Cloudy,200,2013-01-29 03:35:00
9:55 PM,57.2,55.4,94,29.98,10.0,SSW,10.4,-,N/A,,Scattered Clouds,200,2013-01-29 03:55:00
10:15 PM,57.2,55.4,94,29.99,10.0,SSW,10.4,-,N/A,,Clear,200,2013-01-29 04:15:00
10:35 PM,57.2,55.4,94,29.99,10.0,SSW,11.5,-,N/A,,Partly Cloudy,200,2013-01-29 04:35:00
10:55 PM,57.2,55.4,94,29.99,10.0,South,11.5,-,N/A,,Partly Cloudy,190,2013-01-29 04:55:00
11:15 PM,59.0,55.4,88,29.98,10.0,SSW,12.7,-,N/A,,Clear,200,2013-01-29 05:15:00
11:35 PM,59.0,55.4,88,29.99,10.0,SSW,13.8,-,N/A,,Partly Cloudy,200,2013-01-29 05:35:00
11:55 PM,59.0,55.4,88,29.98,10.0,SSW,11.5,-,N/A,,Mostly Cloudy,200,2013-01-29 05:55:00